TimeMDT,TemperatureF,Dew PointF,Humidity,Sea Level PressureIn,VisibilityMPH,Wind Direction,Wind SpeedMPH,Gust SpeedMPH,PrecipitationIn,Events,Conditions,WindDirDegrees,DateUTC
12:56 AM,19.9,9.0,62,30.26,10.0,SE,5.8,-,N/A,,Clear,140,2013-03-25 06:56:00
1:56 AM,17.1,8.1,68,30.25,10.0,Variable,3.5,-,N/A,,Clear,0,2013-03-25 07:56:00
2:56 AM,14.0,8.1,77,30.25,10.0,Calm,Calm,-,N/A,,Clear,0,2013-03-25 08:56:00
3:56 AM,14.0,8.1,77,30.23,10.0,Calm,Calm,-,N/A,,Clear,0,2013-03-25 09:56:00
4:56 AM,15.1,8.1,74,30.21,10.0,Calm,Calm,-,N/A,,Clear,0,2013-03-25 10:56:00
5:56 AM,14.0,8.1,77,30.21,10.0,Calm,Calm,-,N/A,,Clear,0,2013-03-25 11:56:00
6:56 AM,12.0,7.0,80,30.22,10.0,Calm,Calm,-,N/A,,Clear,0,2013-03-25 12:56:00
7:56 AM,12.0,7.0,80,30.23,10.0,Calm,Calm,-,N/A,,Clear,0,2013-03-25 13:56:00
8:56 AM,17.1,10.9,77,30.22,10.0,SSE,3.5,-,N/A,,Clear,160,2013-03-25 14:56:00
9:56 AM,23.0,15.1,72,30.20,10.0,SSE,3.5,-,N/A,,Clear,150,2013-03-25 15:56:00
10:56 AM,32.0,15.1,50,30.17,10.0,South,5.8,-,N/A,,Clear,170,2013-03-25 16:56:00
11:56 AM,36.0,12.0,37,30.16,10.0,South,6.9,-,N/A,,Clear,180,2013-03-25 17:56:00
12:56 PM,39.0,10.9,32,30.13,10.0,Variable,5.8,-,N/A,,Clear,0,2013-03-25 18:56:00
1:56 PM,42.1,8.1,25,30.11,10.0,SW,8.1,19.6,N/A,,Clear,220,2013-03-25 19:56:00
2:56 PM,44.1,8.1,23,30.10,10.0,West,9.2,-,N/A,,Clear,280,2013-03-25 20:56:00
3:56 PM,45.0,8.1,22,30.09,10.0,WNW,5.8,-,N/A,,Clear,290,2013-03-25 21:56:00
4:56 PM,44.1,8.1,23,30.08,10.0,Variable,6.9,-,N/A,,Clear,0,2013-03-25 22:56:00
5:56 PM,45.0,8.1,22,30.07,10.0,North,6.9,-,N/A,,Clear,360,2013-03-25 23:56:00
6:56 PM,42.1,9.0,26,30.07,10.0,WSW,4.6,-,N/A,,Clear,250,2013-03-26 00:56:00
7:56 PM,32.0,10.9,42,30.10,10.0,NNE,6.9,-,N/A,,Clear,20,2013-03-26 01:56:00
8:56 PM,34.0,10.0,37,30.09,10.0,Calm,Calm,-,N/A,,Clear,0,2013-03-26 02:56:00
9:56 PM,28.0,10.9,49,30.09,10.0,Calm,Calm,-,N/A,,Clear,0,2013-03-26 03:56:00
10:56 PM,26.1,10.9,53,30.08,10.0,Calm,Calm,-,N/A,,Clear,0,2013-03-26 04:56:00
11:56 PM,24.1,10.9,57,30.06,10.0,Calm,Calm,-,N/A,,Clear,0,2013-03-26 05:56:00